Preview of NWS' New Version of Forecast
This preview is not operational and should not be used for support decisions.

Regional Weather Roundup (RWR)

Issued by National Weather Service (NWS)

                            
000
ASUS45 KABQ 191701
RWRNM 
NEW MEXICO REGIONAL WEATHER ROUNDUP
NATIONAL WEATHER SERVICE ALBUQUERQUE NM
1100 AM MDT MON AUG 19 2019

NOTE: "FAIR" MEANS FEW OR NO CLOUDS BELOW 12,000 FEET AGL WITH NO
       SIGNIFICANT WEATHER OR OBSTRUCTIONS TO VISION.

      THIS PRODUCT IS RELEASED AS TWO VERSIONS.  ONE VERSION NEAR
      THE TOP OF THE HOUR CONTAINING PRELIMINARY DATA FROM ALBUQUERQUE
      AND OTHER STATIONS.  A FINAL VERSION WITH ADDITIONAL DATA IS 
      ISSUED ABOUT 10 MINUTES AFTER THE HOUR.
 
NMZ501-503-504-510>518-191800-
NORTHWEST PLATEAU/NORTHCENTRAL MOUNTAINS
  
CITY           SKY/WX    TMP DP  RH WIND       PRES   REMARKS
FARMINGTON     FAIR      80  29  15 SE6       30.22R                  
LOS ALAMOS       N/A     78  28  16 NE5       30.35R                  
SANTA FE       FAIR      83  31  15 N12       30.26S                  
TAOS             N/A     81  30  15 VRB3      30.35S                  
ANGEL FIRE     FAIR      72  38  29 CALM      30.44F                  

$$
NMZ402-403-502-505>509-191800-
WESTCENTRAL MOUNTAINS/SOUTHWEST MOUNTAINS
  
CITY           SKY/WX    TMP DP  RH WIND       PRES   REMARKS
GALLUP         FAIR      83  29  14 SW10      30.30R                  
GRANTS         FAIR      80  29  16 CALM      30.31S                  
SILVER CITY    FAIR      86  36  16 CALM      30.20S                  

$$
NMZ407-409-411-412-191800-
SOUTHERN DESERTS
  
CITY           SKY/WX    TMP DP  RH WIND       PRES   REMARKS
DEMING         FAIR      85  39  19 CALM      30.13R                  
LAS CRUCES     CLOUDY    82  38  21 W6        30.14S                  
ALAMOGORDO     FAIR      90  41  18 SW6       30.13R                  
T OR C         FAIR      88  37  16 E10       30.16R                  

$$
NMZ519>523-191800-
CENTRAL VALLEYS/CENTRAL HIGHLANDS
  
CITY           SKY/WX    TMP DP  RH WIND       PRES   REMARKS
ALBUQUERQUE    FAIR      84  33  16 VRB5      30.20S                  
DOUBLE EAGLE   MOSUNNY   81  34  18 VRB6      30.24S                  
CLINES CORNERS NOT AVBL                                               
BELEN          FAIR      86  32  14 E5        30.19S                  
SOCORRO        FAIR      88  29  12 N9        30.16S                  

$$
NMZ524>526-539-540-191800-
SOUTHCENTRAL MOUNTAINS
  
CITY           SKY/WX    TMP DP  RH WIND       PRES   REMARKS
RUIDOSO        CLOUDY    77  48  36 SE17      30.36R                  

$$
NMZ527>531-191800-
NORTHEAST HIGHLANDS/NORTHEAST PLAINS
  
CITY           SKY/WX    TMP DP  RH WIND       PRES   REMARKS
LAS VEGAS      FAIR      84  34  16 CALM      30.30S                  
RATON          FAIR      83  48  29 SW3       30.24F                  
CLAYTON        FAIR      93  50  23 S9        30.13S                  

$$
NMZ532>537-191800-
EASTCENTRAL PLAINS
  
CITY           SKY/WX    TMP DP  RH WIND       PRES   REMARKS
TUCUMCARI      FAIR      92  58  31 VRB5      30.06S                  
CANNON AFB     NOT AVBL                                               
CLOVIS AIRPORT FAIR      91  57  31 SW14      30.12S                  

$$
NMZ028-029-538-191800-
SOUTHEAST PLAINS
  
CITY           SKY/WX    TMP DP  RH WIND       PRES   REMARKS
ROSWELL        PTSUNNY   84  58  40 E5        30.07R                  
ARTESIA        FAIR      90  61  37 SE7       30.08R                  
CARLSBAD       FAIR      91  60  35 VRB5      30.03R                  
HOBBS          MOSUNNY   90  61  37 SE13      30.07S                  


$$